Location: Grassland Mountain Observatory
(35.7543°N, 82.8038°W)
Time: 13:34:17
(UTC-05:00)

X-37B - Visible Passes

Search period start: 07 December 2021 00:00
Search period end: 17 December 2021 00:00
Orbit: 330 x 341 km, 45.0° (Epoch: 20 November)

Date Brightness Start Highest point End Pass type
(mag) Time Alt. Az. Time Alt. Az. Time Alt. Az.
07 Dec 0.9 18:18:47 10° WSW 18:21:35 48° NNW 18:23:02 23° NE visible
08 Dec 2.0 18:39:50 10° WNW 18:42:11 22° NNW 18:42:38 22° N visible
09 Dec 3.0 19:01:11 10° NW 19:02:11 14° NNW 19:02:11 14° NNW visible
10 Dec 2.1 17:45:15 10° WNW 17:47:37 23° NNW 17:49:58 10° NE visible
11 Dec 2.6 18:06:35 10° NW 18:08:22 15° N 18:10:02 10° NNE visible
12 Dec 2.7 18:27:47 10° NNW 18:29:13 13° N 18:29:35 13° N visible
13 Dec 2.9 18:48:24 10° NNW 18:49:10 13° NNW 18:49:10 13° NNW visible
14 Dec 3.3 19:08:36 10° NW 19:08:48 11° NNW 19:08:48 11° NNW visible
15 Dec 2.5 17:53:49 10° NNW 17:55:29 14° N 17:57:10 10° NE visible
16 Dec 1.9 18:14:01 10° NW 18:16:16 20° NNE 18:17:08 18° NE visible
